タッカー彗星

C/2004 Q1 ( Tucker )

English version
Home page
Updated on August 11, 2020

---------------------------------------------------------------------

・ プロフィール

発見日 2004年8月23日
発見光度 14.6等
発見者 Roy A. Tucker (Tucson, AZ)

・ 写真集

・ 軌道要素

Epoch 2004 Dec. 21.0 TT = JDT 2453360.5                                         
T 2004 Dec. 6.86484 TT                                  Rudenko                 
q   2.0467272            (2000.0)            P               Q                  
z  +0.0053589      Peri.   32.96835     +0.66279147     -0.68041838             
 +/-0.0000003      Node    22.13021     +0.36836567     -0.06721891             
e   0.9890318      Incl.   56.08776     +0.65193113     +0.72973450             
From 1901 observations 2004 Aug. 24-2006 Apr. 29, mean residual 0".4.           

・ 星図

・ 光度変化

        m1 = 0.5 + 5 logΔ + 30.0 log r  [ ,0]  (              〜2004年12月 6日)
        m1 = 6.1 + 5 logΔ + 12   log r  [0, ]  (2004年12月 6日〜              )

---------------------------------------------------------------------

軌道要素はM.P.E.C. 2020-P19に掲載されたものです。
星図は StellaNavigator Ver.2.0 for Windows (アストロアーツ 編著 / アスキー出版局刊) で作成したものです。
光度グラフはComet for Windowsで作成したものです。

---------------------------------------------------------------------

Copyright(C) Seiichi Yoshida (comet@aerith.net). All rights reserved.